Time,B instrument,Bx,By,Bz,sigma B,Ion instrument,Status,Tp_par,Tp_perp,carrot,r_sun,clat,clong,earth_he_angle,n_p,vp_x,vp_y,vp_z,vth_p_par,vth_p_perp
1980-05-12 00:18:33,1,-5.09091,10.5455,-8.10909,0.864736,1,1,107811.0,115059.0,1695,0.46368206,-7.2105341,302.8894,298.23315,71.842,315.545,-19.0503,-40.9544,42.188,43.5832
1980-05-12 00:19:14,1,-3.20769,9.28462,-8.11538,1.32732,1,1,124817.0,137305.0,1695,0.463673,-7.210516,302.8833,298.23486,77.6965,313.938,-21.6092,-39.3185,45.3935,47.6103
1980-05-12 00:19:54,1,2.13846,-14.9462,-18.7846,2.64459,1,1,141930.0,128348.0,1695,0.463673,-7.210516,302.87549,298.23486,77.8282,316.008,-21.4784,-35.0856,48.4055,46.0311
1980-05-12 00:20:13,1,3.14615,-17.1923,-17.3615,0.691281,1,1,187250.0,117134.0,1695,0.46366394,-7.2104979,302.87695,298.23633,57.9153,314.723,0.902816,-6.14556,55.5992,43.9743
1980-05-12 00:20:54,1,1.70833,-15.15,-19.0417,1.17928,1,1,258103.0,113104.0,1695,0.46366388,-7.2104979,302.86914,298.23633,61.7772,313.702,-4.86529,-12.1606,65.2762,43.2113
1980-05-12 00:21:34,1,-0.284615,-12.8692,-20.9231,0.523868,1,1,210741.0,110896.0,1695,0.46365482,-7.2104788,302.86279,298.23779,56.9854,316.051,-7.72186,-6.46382,58.9837,42.7873
1980-05-12 00:22:15,1,-0.238462,-14.9308,-18.6923,1.30642,1,1,280688.0,100216.0,1695,0.46364576,-7.2104607,302.86035,298.23926,67.4409,316.754,-5.10212,-21.1704,68.0722,40.6748
1980-05-12 00:22:55,1,-1.41538,-13.0462,-20.5615,2.42011,1,1,195809.0,108023.0,1695,0.46364576,-7.2104607,302.85254,298.23926,60.4065,319.916,-18.4624,-14.393,56.8558,42.2295
1980-05-12 00:23:36,1,-1.41429,-12.7,-21.3929,0.773971,1,1,159670.0,115099.0,1695,0.4636367,-7.2104416,302.8501,298.24072,53.4224,318.091,-3.495,-4.35866,51.3416,43.5906
1980-05-12 00:24:16,1,-1.71538,-11.5154,-21.9692,1.40333,1,1,132642.0,116845.0,1695,0.46362764,-7.2104235,302.84399,298.24243,49.9513,318.486,-4.99772,-2.67397,46.7949,43.9201
1980-05-12 00:24:57,1,-3.95,-6.725,-20.7833,1.92936,1,1,193834.0,120592.0,1695,0.46362758,-7.2104235,302.83618,298.24243,61.7185,320.773,-12.4535,-6.1998,56.5682,44.6187
1980-05-12 00:25:37,1,-3.36154,-10.1692,-22.1692,2.10103,1,1,81379.1,99818.8,1695,0.46361852,-7.2104044,302.83374,298.2439,46.7255,319.445,-10.1544,-2.3207,36.6534,40.5942
1980-05-12 00:26:18,1,-2.6,-10.8083,-22.1833,1.0788,1,1,67031.3,96320.1,1695,0.46360946,-7.2103863,302.82739,298.24536,47.1971,321.309,-7.57725,-2.0505,33.2657,39.8764
1980-05-12 00:26:58,1,-2.71538,-11.5923,-20.8385,0.557254,1,1,102748.0,107438.0,1695,0.46360946,-7.2103863,302.82349,298.24536,58.5101,321.747,1.22738,4.33932,41.1855,42.1151
1980-05-12 00:27:39,1,-1.51538,-13.5385,-19.2154,2.56971,1,1,110973.0,102238.0,1695,0.4636004,-7.2103672,302.81714,298.24683,60.6056,324.186,3.5068,-0.0876887,42.8022,41.0833
1980-05-12 00:28:19,1,-0.761538,-14.3462,-18.6615,1.40312,1,1,110743.0,107814.0,1695,0.46359134,-7.2103491,302.81494,298.24854,60.2504,317.86,11.5129,-4.75355,42.7579,42.1887
1980-05-12 00:29:00,1,-1.5,-12.0154,-19.9692,2.3898,1,1,88683.0,106307.0,1695,0.46358222,-7.210331,302.80859,298.25,58.33,321.649,9.26115,-0.670848,38.2629,41.8927
1980-05-12 00:29:40,1,-1.91538,-8.37692,-21.6385,1.70724,1,1,79508.4,108564.0,1695,0.46358222,-7.21033,302.80078,298.25,56.9676,319.368,-7.06222,7.94038,36.2297,42.3352
1980-05-12 00:30:21,1,-3.63077,-6.03846,-20.6154,1.03312,1,1,81680.0,114176.0,1695,0.46357316,-7.2103119,302.79834,298.25146,66.0255,326.204,-8.3327,7.23283,36.7211,43.4155
1980-05-12 00:31:01,1,-4.17692,-5.94615,-20.5769,0.603736,1,1,79922.7,115408.0,1695,0.4635641,-7.2102938,302.79199,298.25293,64.5962,327.922,-6.89202,7.56485,36.3239,43.6492
1980-05-12 00:31:42,1,-4.68462,-5.16923,-20.4462,1.15148,1,1,85491.2,118762.0,1695,0.4635641,-7.2102938,302.78809,298.25293,65.0232,327.898,-5.94369,7.08869,37.568,44.2789
1980-05-12 00:32:22,1,-5.4,-2.34615,-19.8308,3.63382,1,1,79778.4,104706.0,1695,0.46355504,-7.2102747,302.78174,298.25439,73.1138,325.087,-5.43172,4.12035,36.2911,41.5761
1980-05-12 00:33:03,1,-8.59231,1.01538,-19.7,1.53488,1,1,68534.7,107001.0,1695,0.46354592,-7.2102566,302.77563,298.2561,68.4427,334.903,-17.3202,4.8634,33.6367,42.0292
1980-05-12 00:33:43,1,-7.275,-2.275,-22.2333,1.71298,1,1,77952.5,102671.0,1695,0.46354592,-7.2102566,302.77173,298.2561,59.1689,333.686,-13.4995,14.471,35.8734,41.17
1980-05-12 00:34:24,1,-7.40769,-1.66923,-22.2692,1.54084,1,1,68128.1,96478.0,1695,0.46353686,-7.2102375,302.76538,298.25757,60.9005,330.668,-6.15906,12.5686,33.5368,39.9091
1980-05-12 00:35:04,1,-6.70714,-1.54286,-22.9143,1.41726,1,1,59609.3,79992.5,1695,0.4635278,-7.2102194,302.76294,298.25903,57.1483,327.463,-3.146,11.6548,31.37,36.3398
1980-05-12 00:35:45,1,-6.52143,-0.542857,-20.6357,3.02407,1,1,105338.0,75914.1,1695,0.4635278,-7.2102194,302.75513,298.25903,71.32,329.531,-13.935,-0.695665,41.7013,35.4013
1980-05-12 00:36:25,1,-7.45385,3.33846,-18.9154,5.06329,1,1,59370.6,69735.5,1695,0.46351874,-7.2102003,302.74878,298.2605,75.9845,329.535,-8.13593,7.3674,31.3072,33.9301
1980-05-12 00:37:06,1,-8.91538,12.5615,-12.1923,6.10042,1,1,178890.0,70683.4,1695,0.46350962,-7.2101822,302.74658,298.26221,94.3018,330.198,-27.705,-22.8121,54.3439,34.1599
1980-05-12 00:37:46,1,-7.75714,1.29286,-23.4214,2.28203,1,1,54176.8,61195.6,1695,0.46350962,-7.2101822,302.73877,298.26221,59.8727,331.511,-13.0298,7.00501,29.9064,31.7847
1980-05-12 00:38:27,1,-7.3,-2.02308,-24.7462,0.870693,1,1,51183.3,64192.8,1695,0.46350056,-7.2101631,302.73633,298.26367,61.5967,328.808,-3.67869,9.96321,29.0685,32.5538
1980-05-12 00:39:07,1,-5.2,-7.54615,-24.5538,0.855957,1,1,43310.9,54831.1,1695,0.4634915,-7.210145,302.72998,298.26514,60.0368,325.786,2.10961,10.7582,26.7397,30.0865
1980-05-12 00:39:48,1,-5.9,-6.51538,-24.2538,1.38367,1,1,53353.7,66268.9,1695,0.4634915,-7.210145,302.72607,298.26514,59.9691,328.606,0.249565,11.2145,29.6784,33.076
1980-05-12 00:40:28,1,-5.83077,-8.36154,-23.6154,0.883846,1,1,55880.9,66781.1,1695,0.46348238,-7.2101269,302.71973,298.2666,58.0619,325.263,9.80499,10.0784,30.3731,33.2036
1980-05-12 00:41:09,1,-5.40833,-9.04167,-23.575,0.858333,1,1,57935.8,68603.9,1695,0.46347332,-7.2101078,302.71338,298.26807,59.4817,326.285,9.95973,10.5125,30.9265,33.6537
1980-05-12 00:41:49,1,-4.88462,-9.28462,-23.1231,0.985937,1,1,56293.5,66208.7,1695,0.46347332,-7.2101078,302.70947,298.26807,61.8424,325.774,9.22586,8.83875,30.4851,33.061
1980-05-12 00:42:30,1,-3.91667,-10.7917,-22.65,0.74475,1,1,65150.1,66903.4,1695,0.46346426,-7.2100897,302.70337,298.26978,59.4523,323.055,14.4586,8.28345,32.7956,33.234
1980-05-12 00:43:10,1,-4.38462,-10.1,-22.9385,0.80229,1,1,61207.0,70749.2,1695,0.4634552,-7.2100706,302.70093,298.27124,63.186,324.972,12.8634,8.27778,31.7877,34.1758
1980-05-12 00:43:51,1,-4.62308,-10.8,-22.4462,1.41952,1,1,56005.8,62733.8,1695,0.4634552,-7.2100706,302.69312,298.27124,59.9053,322.815,14.2279,5.36352,30.4071,32.1817
1980-05-12 00:44:31,1,-4.79231,-10.8769,-22.1462,0.501123,1,1,52221.1,67171.3,1695,0.46344608,-7.2100525,302.68677,298.27271,64.1558,323.117,13.3633,2.90993,29.3617,33.3004
1980-05-12 00:45:12,1,-5.40769,-10.6846,-21.6769,0.509089,1,1,52552.5,60542.0,1695,0.46343702,-7.2100334,302.68433,298.27417,60.4226,325.897,12.4276,2.56214,29.4547,31.6145
1980-05-12 00:45:52,1,-5.17692,-11.0692,-21.4154,0.505941,1,1,53891.0,64613.5,1695,0.46343702,-7.2100334,302.67651,298.27417,64.5094,322.897,12.1091,4.03165,29.8274,32.6603
1980-05-12 00:46:33,1,-5.26154,-12.1769,-20.5385,0.738221,1,1,55935.8,62758.1,1695,0.46342796,-7.2100153,302.67407,298.27563,63.2602,326.548,16.2904,0.970274,30.3881,32.1879
1980-05-12 00:47:13,1,-4.52308,-13.5769,-18.9154,2.05357,1,1,58507.8,64523.7,1695,0.4634189,-7.2099962,302.66797,298.27734,65.9403,325.05,16.7691,-0.385251,31.0788,32.6375
1980-05-12 00:47:54,1,-3.70769,-8.83077,-21.6,0.905408,1,1,88167.8,68948.6,1695,0.4634189,-7.2099962,302.66016,298.27734,62.7497,324.033,8.7,8.82311,38.1516,33.7381
1980-05-12 00:48:34,1,-3.92308,-10.4077,-20.4,2.04737,1,1,85641.7,66647.8,1695,0.46340978,-7.2099781,302.65771,298.27881,59.5676,323.051,13.5229,8.90315,37.6011,33.1704
1980-05-12 00:49:15,1,-2.46923,-12.6846,-19.0231,2.46963,1,1,72257.5,66124.7,1695,0.46340072,-7.20996,302.65137,298.28027,59.8397,319.777,23.4689,-0.559543,34.5382,33.04
1980-05-12 00:49:55,1,3.13846,-14.1769,-18.1615,2.36358,1,1,79856.8,66081.7,1695,0.46340072,-7.209959,302.64746,298.28027,65.3026,308.454,26.5593,0.712501,36.309,33.0292
1980-05-12 00:50:36,1,-0.175,-10.5833,-21.025,1.42658,1,1,62394.7,62323.1,1695,0.46339166,-7.2099409,302.64111,298.28174,60.1227,316.617,18.83,6.95765,32.0946,32.0762
1980-05-12 00:51:16,1,-1.93077,-11.2231,-20.2615,2.74817,1,1,78626.4,65824.5,1695,0.4633826,-7.2099228,302.63892,298.28345,62.6074,323.311,17.0552,10.1547,36.0282,32.9649
1980-05-12 00:51:57,1,7.78462,-15.4154,-0.2,1.15071,1,1,48604.9,71273.6,1695,0.4633826,-7.2099228,302.6311,298.28345,72.4335,316.045,8.73876,-28.5151,28.3268,34.3022
1980-05-12 00:52:37,1,7.88571,-3.28571,9.55714,1.8332,1,1,81006.6,63416.5,1695,0.46337348,-7.2099037,302.62476,298.28491,89.8065,318.355,-5.97491,-37.2631,36.5694,32.3563
1980-05-12 00:53:18,1,5.11667,7.15833,11.0917,3.40997,1,1,99622.6,75611.1,1695,0.46336442,-7.2098856,302.62231,298.28638,76.0909,320.191,-19.5136,-35.2496,40.5543,35.3306
1980-05-12 00:53:58,1,5.25385,7.03077,13.0231,1.96944,1,1,91022.5,73566.2,1695,0.46336442,-7.2098856,302.6145,298.28638,80.3907,314.834,-10.477,-36.0245,38.7643,34.8496
1980-05-12 00:54:39,1,8.29231,0.315385,12.6462,2.79585,1,1,76434.8,60729.4,1695,0.46335536,-7.2098665,302.61206,298.28784,80.3807,325.018,-21.7667,-33.6218,35.5225,31.6634
1980-05-12 00:55:19,1,10.8231,-9.67692,6.63846,2.76485,1,1,82969.4,65453.5,1695,0.4633463,-7.2098484,302.60571,298.28931,80.9677,318.051,-6.02266,-32.4123,37.0098,32.8719
1980-05-12 00:56:00,1,7.15,-17.1583,-11.3417,7.30883,1,1,139077.0,83318.4,1695,0.46333724,-7.2098293,302.59961,298.29102,63.9377,305.229,18.0843,-25.394,47.9165,37.0876
1980-05-12 00:56:40,1,11.025,-17.3917,-6.875,4.59759,1,1,141816.0,57675.9,1695,0.46333718,-7.2098293,302.5957,298.29102,51.4465,294.815,17.3904,-18.2358,48.3861,30.8571
1980-05-12 00:57:21,1,-0.9,-16.2417,-15.0083,2.52584,1,1,90196.0,65468.1,1695,0.46332812,-7.2098112,302.58936,298.29248,54.9482,326.767,7.30974,-2.86412,38.5879,32.8755
1980-05-12 00:58:01,1,-0.423077,-14.6,-18.0,0.95366,1,1,80122.9,80836.7,1695,0.46331906,-7.2097921,302.58691,298.29395,63.2017,324.47,3.74704,2.06818,36.3694,36.5311
1980-05-12 00:58:42,1,-1.42308,-15.7538,-16.0,1.97046,1,1,146282.0,87482.4,1695,0.46331906,-7.2097921,302.5791,298.29395,70.1664,329.684,9.43476,-5.41417,49.142,38.003
1980-05-12 00:59:22,1,-2.78462,-13.0,-18.6615,1.52688,1,1,103017.0,91896.8,1695,0.46331,-7.209774,302.57666,298.29541,63.2933,326.125,11.1609,-1.52485,41.2394,38.9501
1980-05-12 01:00:03,1,4.06154,-18.7,-16.5769,3.54958,1,1,99942.1,62144.9,1695,0.46330094,-7.2097559,302.57056,298.29712,59.0364,332.513,20.1849,23.9769,40.6193,32.0303
1980-05-12 01:00:43,1,3.13077,-14.9154,-20.5769,3.04009,1,1,75592.3,58021.1,1695,0.46330088,-7.2097559,302.56274,298.29712,54.0803,316.863,18.7936,26.1533,35.3262,30.9493
1980-05-12 01:01:24,1,-1.94615,-8.08462,-20.5846,8.45652,1,1,71530.1,85054.4,1695,0.46329182,-7.2097359,302.5603,298.29858,60.2544,348.102,-20.98,32.3507,34.3639,37.472
1980-05-12 01:02:04,-1,nan,nan,nan,nan,1,4,nan,nan,1695,0.46328276,-7.2097168,302.55396,298.30005,nan,nan,nan,nan,nan,nan
1980-05-12 01:02:45,1,7.375,-20.2333,-9.225,1.281,1,1,88831.5,59461.0,1695,0.46328276,-7.2097168,302.55005,298.30005,57.1702,321.015,16.153,-2.09508,38.2949,31.331
1980-05-12 01:03:25,1,9.87143,-19.3143,-7.67143,1.19804,1,1,73154.3,60312.3,1695,0.4632737,-7.2096977,302.5437,298.30151,57.5346,314.51,15.1719,-10.1503,34.7519,31.5545
1980-05-12 01:04:06,1,12.4769,-17.7077,-2.53846,2.15162,1,1,66698.1,63516.5,1695,0.46326464,-7.2096786,302.53735,298.30298,59.219,308.705,13.8494,-26.6599,33.1829,32.3818
1980-05-12 01:04:46,1,11.6417,-18.825,-4.39167,1.13287,1,1,80154.0,64749.2,1695,0.46326458,-7.2096786,302.53345,298.30298,52.4698,307.389,15.7264,-25.0596,36.3765,32.6945
1980-05-12 01:05:27,1,10.7417,-18.4917,-7.85,1.52884,1,1,81824.5,69786.4,1695,0.46325552,-7.2096596,302.52734,298.30469,53.8788,310.09,18.2327,-10.3051,36.7536,33.9425
1980-05-12 01:06:07,1,9.6,-19.0692,-6.58462,1.97766,1,1,122709.0,84214.6,1695,0.46324646,-7.2096405,302.5249,298.30615,59.6559,315.018,10.722,-16.6708,45.0087,37.2865
1980-05-12 01:06:48,1,10.5917,-18.675,-6.55,2.01539,1,1,127586.0,84467.5,1695,0.46324646,-7.2096405,302.51709,298.30615,59.059,313.564,12.9615,-13.8226,45.8944,37.3424
1980-05-12 01:07:28,1,8.86667,-19.05,-2.26667,0.802254,1,1,116633.0,79049.5,1695,0.4632374,-7.2096214,302.51074,298.30762,55.5577,317.21,12.7656,-28.935,43.8802,36.125
1980-05-12 01:08:09,1,8.30833,-19.1583,0.225,3.30707,1,1,112942.0,88391.3,1695,0.46322834,-7.2096024,302.5083,298.30908,57.7034,324.228,17.4463,-45.4211,43.1802,38.1999
1980-05-12 01:08:49,-1,nan,nan,nan,nan,1,4,nan,nan,1695,0.46322829,-7.2096024,302.50049,298.30908,nan,nan,nan,nan,nan,nan
1980-05-12 01:09:30,1,11.1455,-15.6182,4.12727,1.62272,1,1,128019.0,81622.0,1695,0.46321923,-7.2095833,302.49805,298.31055,54.0432,315.041,8.25116,-46.3663,45.9723,36.7081
1980-05-12 01:10:10,1,13.4417,-14.875,2.425,1.21772,1,1,97843.7,68244.8,1695,0.46321017,-7.2095633,302.49194,298.31226,53.1909,306.726,11.2354,-37.104,40.1906,33.5655
1980-05-12 01:10:51,1,12.15,-15.1917,1.89167,3.16686,1,1,93601.5,91393.9,1695,0.46321017,-7.2095633,302.48804,298.31226,58.2269,306.816,10.1542,-42.3848,39.3097,38.8433
1980-05-12 01:11:31,1,5.54167,21.7583,9.35,2.85202,1,1,231222.0,68616.1,1695,0.46320111,-7.2095442,302.48169,298.31372,67.0956,322.111,-64.9016,-42.3189,61.7835,33.6566
1980-05-12 01:12:12,1,9.06923,19.3692,12.2154,0.660554,1,1,99722.8,58452.9,1695,0.46319205,-7.2095251,302.47534,298.31519,49.6726,315.873,-56.9661,-48.9764,40.5747,31.0643
1980-05-12 01:12:52,1,10.0077,9.66923,15.3692,3.62984,1,1,131071.0,82301.0,1695,0.46319199,-7.2095251,302.47144,298.31519,57.7937,308.713,-53.9433,-62.998,46.5169,36.8604
1980-05-12 01:13:33,1,9.40769,14.7385,12.5462,1.53904,1,1,117497.0,74433.6,1695,0.46318293,-7.209506,302.46509,298.31665,56.1137,313.86,-54.6557,-54.6956,44.0425,35.0544
1980-05-12 01:14:13,1,7.16923,14.9,11.9923,3.47139,1,1,180787.0,79507.6,1695,0.46317387,-7.209487,302.46289,298.31836,62.918,316.033,-55.6294,-59.2045,54.6312,36.2295
1980-05-12 01:14:54,1,4.97692,18.3846,10.8154,1.00831,1,1,153006.0,80156.6,1695,0.46317387,-7.209487,302.45508,298.31836,60.2348,321.398,-57.7976,-49.6979,50.2587,36.3771
1980-05-12 01:15:34,1,5.18571,18.9571,10.7143,0.760102,1,1,153854.0,78918.9,1695,0.46316481,-7.2094679,302.44873,298.31982,59.5072,325.97,-61.6695,-49.1073,50.3979,36.0951
1980-05-12 01:16:15,1,4.88462,16.8385,11.8538,1.00614,1,1,163542.0,76506.4,1695,0.46315575,-7.2094488,302.44629,298.32129,54.3944,319.087,-59.93,-50.948,51.9604,35.5391
1980-05-12 01:16:55,1,3.48571,20.2571,10.6786,0.969352,1,1,159456.0,71693.4,1695,0.46315569,-7.2094488,302.43848,298.32129,52.5303,322.538,-57.2831,-48.692,51.3071,34.4031
1980-05-12 01:17:36,1,0.628571,19.6429,10.6429,1.32873,1,1,140384.0,67314.5,1695,0.46314663,-7.2094297,302.43604,298.32275,54.3067,325.668,-56.0818,-50.2945,48.1413,33.3359
1980-05-12 01:18:16,1,-1.70667,17.1933,11.6333,4.56736,1,1,160163.0,78906.6,1695,0.46313757,-7.2094097,302.42969,298.32422,55.9544,327.995,-49.1596,-53.1134,51.4209,36.0923
1980-05-12 01:18:57,1,9.54615,13.4231,12.0615,2.14917,1,1,144533.0,74866.5,1695,0.46313757,-7.2094097,302.42188,298.32422,62.5741,306.585,-29.4564,-50.538,48.8474,35.1562
1980-05-12 01:19:37,1,8.79286,13.1357,12.2429,0.505379,1,1,171317.0,73725.2,1695,0.46312851,-7.2093906,302.41968,298.32593,63.2865,308.508,-28.0477,-47.9842,53.1812,34.8872
1980-05-12 01:20:18,1,8.53333,12.75,13.05,0.765216,1,1,172564.0,74865.4,1695,0.46311945,-7.2093716,302.41333,298.32739,61.7913,311.165,-26.8998,-51.1391,53.3744,35.1559
1980-05-12 01:20:58,1,9.42308,14.8923,11.0846,2.19175,1,1,182507.0,73096.9,1695,0.46311939,-7.2093716,302.40942,298.32739,64.2449,313.868,-25.9144,-43.4246,54.8906,34.7382
1980-05-12 01:21:39,1,8.53077,16.3538,8.4,0.773603,1,1,181317.0,77861.9,1695,0.46311033,-7.2093525,302.40308,298.32886,65.2549,315.01,-29.9408,-40.0643,54.7114,35.8526
1980-05-12 01:22:19,1,9.00769,17.4769,8.63846,0.929974,1,1,174327.0,63758.9,1695,0.46310127,-7.2093334,302.40063,298.33032,62.1403,314.183,-34.8522,-44.8359,53.6464,32.4435
1980-05-12 01:23:00,1,7.93077,12.8462,12.0077,2.82882,1,1,174399.0,70976.0,1695,0.46309221,-7.2093143,302.39429,298.33179,54.0942,310.478,-31.5605,-58.0403,53.6574,34.2305
1980-05-12 01:23:40,1,7.10769,17.4615,7.93846,1.28754,1,1,202354.0,59450.9,1695,0.46309221,-7.2093143,302.38647,298.33179,59.0894,311.411,-39.5968,-49.0384,57.7981,31.3283
1980-05-12 01:24:21,1,7.66154,18.1692,6.18462,1.07401,1,1,186623.0,66663.8,1695,0.46308315,-7.2092953,302.38428,298.3335,62.9996,311.137,-45.7734,-46.7109,55.5061,33.1744
1980-05-12 01:25:01,1,5.92308,17.6308,2.20769,1.67929,1,1,153345.0,68584.0,1695,0.46307403,-7.2092762,302.37793,298.33496,60.4615,316.134,-43.1777,-34.8801,50.3145,33.6488
1980-05-12 01:25:42,1,6.29231,10.9923,7.97692,1.35934,1,1,189559.0,64927.6,1695,0.46307403,-7.2092762,302.37402,298.33496,68.6579,318.657,-34.1624,-38.288,55.9409,32.7395
1980-05-12 01:26:22,1,4.85385,16.6846,-0.469231,3.37909,1,1,178484.0,75441.8,1695,0.46306497,-7.2092571,302.36768,298.33643,65.0169,320.048,-39.3708,-31.6085,54.2822,35.291
1980-05-12 01:27:03,1,2.45385,16.2385,3.86154,2.25105,1,1,142861.0,71072.7,1695,0.46305591,-7.2092371,302.36133,298.33789,69.1493,320.472,-39.488,-36.1689,48.564,34.2538
1980-05-12 01:27:43,1,4.76154,14.9615,3.42308,1.5503,1,1,130746.0,73762.8,1695,0.46305591,-7.2092371,302.35742,298.33789,68.5927,321.707,-40.9886,-33.4454,46.4593,34.8961
1980-05-12 01:28:24,1,4.6,14.9462,5.16154,2.58074,1,1,112746.0,69481.6,1695,0.46304685,-7.209218,302.35132,298.3396,64.9837,321.943,-36.7619,-35.1902,43.1428,33.8683
1980-05-12 01:29:04,1,5.96429,12.6929,7.05,2.18855,1,1,113049.0,70820.5,1695,0.46303773,-7.209199,302.34888,298.34106,64.6054,320.515,-38.9739,-37.64,43.2008,34.193
1980-05-12 01:29:45,1,6.17143,12.6643,7.57143,0.677669,1,1,98976.4,71104.7,1695,0.46303773,-7.209199,302.34106,298.34106,63.5348,321.352,-37.1154,-41.8801,40.4226,34.2615
1980-05-12 01:30:25,1,6.69231,12.9385,8.26923,1.97343,1,1,94846.9,69988.3,1695,0.46302867,-7.2091799,302.33862,298.34253,66.8517,322.845,-38.3618,-36.4065,39.5703,33.9915
1980-05-12 01:31:06,1,6.99286,14.6,8.02143,3.82392,1,1,85238.6,66417.0,1695,0.46301961,-7.2091608,302.33228,298.34399,60.4539,323.203,-37.9095,-27.2666,37.5125,33.1129
1980-05-12 01:31:46,1,7.92143,17.1143,5.13571,1.1974,1,1,83839.7,59619.4,1695,0.46301961,-7.2091608,302.32446,298.34399,59.0008,326.087,-29.628,-34.3778,37.2034,31.3727
1980-05-12 01:32:27,1,5.70769,16.5231,5.79231,1.29797,1,1,96211.6,62020.2,1695,0.46301049,-7.2091417,302.32202,298.34546,61.8004,326.959,-37.3558,-33.5213,39.854,31.9981
1980-05-12 01:33:07,1,6.38571,15.5071,6.75,0.775584,1,1,85476.0,59018.7,1695,0.46300143,-7.2091227,302.31592,298.34717,63.2449,327.046,-36.9667,-33.2326,37.5647,31.2142
1980-05-12 01:33:48,1,5.9,16.3154,9.01538,0.786122,1,1,75025.2,59351.5,1695,0.46300143,-7.2091227,302.31201,298.34717,56.1204,328.729,-32.8196,-30.684,35.1934,31.3021
1980-05-12 01:34:28,1,8.06923,15.5077,8.66154,0.594053,1,1,75457.1,58680.6,1695,0.46299237,-7.2091036,302.30566,298.34863,57.699,322.941,-34.5806,-34.1424,35.2946,31.1247
1980-05-12 01:35:09,1,7.93846,15.0923,8.49231,0.789802,1,1,76298.0,61756.2,1695,0.46298331,-7.2090836,302.29932,298.3501,59.1525,322.152,-35.4041,-33.7073,35.4907,31.9299
1980-05-12 01:35:49,1,6.65385,15.2846,7.85385,0.540764,1,1,85339.4,60537.4,1695,0.46298331,-7.2090836,302.29541,298.3501,63.4812,321.361,-41.4288,-34.3351,37.5347,31.6133
1980-05-12 01:36:30,1,5.07692,15.5,8.20769,0.746907,1,1,77100.7,64178.1,1695,0.46297419,-7.2090645,302.28906,298.35156,62.603,321.096,-39.8273,-34.3377,35.6769,32.55
1980-05-12 01:37:10,1,5.39231,15.0692,8.23846,0.660285,1,1,85667.5,60390.7,1695,0.46296513,-7.2090454,302.28687,298.35327,60.9544,322.526,-41.8413,-34.3531,37.6068,31.575
1980-05-12 01:37:51,1,5.22308,15.1769,8.56154,0.641928,1,1,83533.9,58979.6,1695,0.46296513,-7.2090454,302.27905,298.35327,60.9824,322.489,-40.9635,-35.0275,37.1355,31.2039
1980-05-12 01:38:31,1,4.40769,15.1769,9.36154,0.514638,1,1,76410.3,59608.6,1695,0.46295607,-7.2090263,302.27271,298.35474,63.6292,321.255,-40.3745,-35.559,35.5168,31.3698
1980-05-12 01:39:12,1,4.43077,15.6308,8.91538,0.752039,1,1,72854.0,59209.0,1695,0.46294701,-7.2090073,302.27026,298.3562,61.4078,325.401,-42.6782,-35.1248,34.6804,31.2645
1980-05-12 01:39:52,1,3.96154,15.2308,9.19231,0.939218,1,1,86722.9,62389.1,1695,0.46294701,-7.2090073,302.26245,298.3562,61.5767,326.371,-43.6057,-36.3632,37.8377,32.0931
1980-05-12 01:40:33,1,5.21429,15.2143,8.2,1.17578,1,1,75885.8,55962.2,1695,0.46293789,-7.2089882,302.26001,298.35767,60.2904,326.641,-43.4993,-33.9354,35.3947,30.3952
1980-05-12 01:41:13,1,4.37692,15.9077,8.28462,0.724793,1,1,79148.9,57782.3,1695,0.46292883,-7.2089691,302.25366,298.35913,62.1355,324.91,-43.1567,-32.2459,36.1477,30.8856
1980-05-12 01:41:54,1,2.20714,15.4429,9.64286,1.12624,1,1,73276.6,57997.0,1695,0.46292883,-7.2089691,302.24976,298.35913,62.3473,324.629,-43.013,-32.9555,34.7809,30.9429
1980-05-12 01:42:34,1,1.84286,15.5357,8.72857,0.430531,1,1,82415.1,61580.8,1695,0.46291977,-7.20895,302.24365,298.36084,61.347,329.068,-45.5072,-33.446,36.886,31.8846
1980-05-12 01:43:15,1,4.49231,15.0923,8.56923,0.616825,1,1,77559.9,60833.5,1695,0.46291071,-7.208931,302.2373,298.3623,62.9393,325.227,-45.4802,-31.7931,35.783,31.6905
1980-05-12 01:43:55,1,4.04286,15.0286,8.87857,1.12461,1,1,80755.8,63505.1,1695,0.46291071,-7.208931,302.2334,298.3623,63.2827,326.747,-45.5426,-31.8847,36.5128,32.3789
1980-05-12 01:44:36,1,4.46923,15.4538,8.14615,0.605888,1,1,76519.4,55946.2,1695,0.46290159,-7.2089109,302.22705,298.36377,61.8631,321.237,-45.0594,-27.858,35.5421,30.3909
1980-05-12 01:45:16,1,4.74615,15.7538,8.19231,0.470176,1,1,80165.2,61136.5,1695,0.46289253,-7.2088919,302.22461,298.36523,63.9121,323.216,-45.1228,-30.8225,36.379,31.7693
1980-05-12 01:45:57,1,4.97857,15.1071,9.18571,0.848107,1,1,71224.5,55882.0,1695,0.46289253,-7.2088919,302.2168,298.36523,61.633,325.96,-44.6039,-29.8455,34.2904,30.3734
1980-05-12 01:46:37,1,3.23846,16.9692,7.91538,0.683621,1,1,68809.5,54896.7,1695,0.46288347,-7.2088728,302.21045,298.3667,60.9511,324.82,-45.6573,-31.1573,33.7041,30.1045
1980-05-12 01:47:18,1,1.97143,17.6786,7.40714,1.18145,1,1,58035.3,53248.3,1695,0.46287441,-7.2088537,302.20825,298.36841,60.7494,325.332,-46.1636,-30.0391,30.9531,29.649
1980-05-12 01:47:58,1,6.27857,15.1,8.37143,1.56917,1,1,73686.6,53207.6,1695,0.46287441,-7.2088537,302.20044,298.36841,62.1068,323.294,-43.7399,-28.1554,34.878,29.6377
1980-05-12 01:48:39,1,7.61538,14.4692,9.01538,1.49362,1,1,93389.2,60779.6,1695,0.46286529,-7.2088346,302.198,298.36987,58.1033,325.543,-43.7135,-25.8415,39.2651,31.6765
1980-05-12 01:49:19,1,8.54286,13.3643,9.0,1.00451,1,1,82172.4,55160.2,1695,0.46285623,-7.2088156,302.19165,298.37134,62.3387,326.462,-50.5529,-27.575,36.8316,30.1766
1980-05-12 01:50:00,1,6.26923,16.2,8.94615,0.946248,1,1,94870.3,55215.2,1695,0.46284717,-7.2087965,302.1853,298.3728,61.0476,329.749,-46.8768,-23.8455,39.5752,30.1917
1980-05-12 01:50:40,1,5.85385,15.5077,8.29231,2.09561,1,1,94429.1,53332.6,1695,0.46284717,-7.2087965,302.1814,298.3728,63.3149,324.516,-46.5708,-26.6444,39.4831,29.6725
1980-05-12 01:51:21,1,14.3692,9.28462,10.4154,1.01911,1,1,64649.5,56087.6,1695,0.46283811,-7.2087774,302.17529,298.37451,51.014,333.666,-47.5942,-18.326,32.6694,30.4293
1980-05-12 01:52:01,1,15.1429,5.8,11.2071,1.98717,1,1,69380.1,56655.3,1695,0.46282905,-7.2087574,302.17285,298.37598,51.7329,330.764,-47.0174,-15.7983,33.8435,30.5829